Location: Mentone
(34.5413°N, 85.5351°W)
Time: 16:32:09
(UTC-05:00)

Tiros 1 despin weight - All Passes

Search period start: 24 April 2014 00:00
Search period end: 04 May 2014 00:00
Orbit: 602 x 653 km, 48.2° (Epoch: 23 April)

Date Brightness Start Highest point End Pass type
(mag) Time Alt. Az. Time Alt. Az. Time Alt. Az.
24 Apr - 04:40:27 10° SSE 04:42:21 13° SE 04:44:14 10° ESE visible
24 Apr - 06:19:05 10° SW 06:23:35 89° SE 06:28:03 10° NE daylight
24 Apr - 08:02:15 10° WNW 08:05:47 22° NNW 08:09:19 10° NNE daylight
24 Apr - 09:46:32 10° NNW 09:48:50 14° N 09:51:09 10° NNE daylight
24 Apr - 11:28:24 10° NNW 11:31:54 22° NNE 11:35:25 10° ENE daylight
24 Apr - 13:09:39 10° NW 13:14:08 88° NE 13:18:39 10° SE daylight
24 Apr - 14:53:15 10° W 14:55:23 13° SW 14:57:32 10° SSW daylight
25 Apr - 04:57:54 10° SSW 05:01:47 29° SE 05:05:39 10° ENE visible
25 Apr - 06:39:06 10° WSW 06:43:24 45° NNW 06:47:42 10° NE daylight
25 Apr - 08:23:10 10° NW 08:26:01 16° NNW 08:28:52 10° NNE daylight
25 Apr - 10:06:37 10° NNW 10:09:12 15° N 10:11:47 10° NE daylight
25 Apr - 11:47:53 10° NW 11:51:59 35° NNE 11:56:06 10° E daylight
25 Apr - 13:29:34 10° WNW 13:33:47 41° SW 13:38:02 10° SSE daylight
26 Apr - 05:16:54 10° SW 05:21:22 66° SE 05:25:48 10° ENE visible
26 Apr - 06:59:36 10° W 07:03:24 27° NNW 07:07:12 10° NE daylight
26 Apr - 08:44:00 10° NW 08:46:21 14° N 08:48:43 10° NNE daylight
26 Apr - 10:26:16 10° NNW 10:29:29 19° NNE 10:32:43 10° ENE daylight
26 Apr - 12:07:26 10° NW 12:11:53 66° NE 12:16:20 10° ESE daylight
26 Apr - 13:50:11 10° W 13:53:17 19° SW 13:56:24 10° S daylight
27 Apr - 03:56:14 10° S 03:59:38 21° SE 04:03:02 10° E visible
27 Apr - 05:36:39 10° WSW 05:41:06 59° NW 05:45:31 10° NE daylight
27 Apr - 07:20:26 10° WNW 07:23:34 18° NNW 07:26:41 10° NNE daylight
27 Apr - 09:04:18 10° NNW 09:06:43 14° N 09:09:07 10° NE daylight
27 Apr - 10:45:44 10° NW 10:49:37 28° NNE 10:53:30 10° E daylight
27 Apr - 12:27:12 10° WNW 12:31:35 58° SW 12:35:59 10° SE daylight
28 Apr - 04:14:48 10° SSW 04:19:09 47° SE 04:23:27 10° ENE visible
28 Apr - 05:56:58 10° W 06:01:01 32° NNW 06:05:03 10° NE daylight
28 Apr - 07:41:19 10° NW 07:43:51 15° N 07:46:21 10° NNE daylight
28 Apr - 09:24:04 10° NNW 09:27:01 17° NNE 09:29:58 10° NE daylight
28 Apr - 11:05:14 10° NW 11:09:34 50° NNE 11:13:55 10° ESE daylight
28 Apr - 12:47:27 10° WNW 12:51:07 25° SW 12:54:49 10° S daylight
29 Apr - 02:54:50 10° SSE 02:57:29 15° SE 03:00:07 10° E visible
29 Apr - 04:34:16 10° SW 04:38:48 79° NW 04:43:18 10° NE visible
29 Apr - 06:17:40 10° WNW 06:21:06 21° NNW 06:24:30 10° NNE daylight
29 Apr - 08:01:52 10° NNW 08:04:11 14° N 08:06:30 10° NNE daylight
29 Apr - 09:43:34 10° NNW 09:47:12 24° NNE 09:50:50 10° ENE daylight
29 Apr - 11:24:53 10° NW 11:29:20 79° SW 11:33:48 10° SE daylight
29 Apr - 13:09:30 10° WSW 13:10:30 11° SW 13:11:30 10° SW daylight
30 Apr - 03:12:47 10° SSW 03:16:55 34° SE 03:21:00 10° ENE visible
30 Apr - 04:54:21 10° W 04:58:37 40° NNW 05:02:52 10° NE visible
30 Apr - 06:38:34 10° NW 06:41:19 16° N 06:44:03 10° NNE daylight
30 Apr - 08:21:48 10° NNW 08:24:30 16° N 08:27:12 10° NE daylight
30 Apr - 10:03:01 10° NW 10:07:13 39° NNE 10:11:24 10° E daylight
30 Apr - 11:44:52 10° WNW 11:48:55 35° SW 11:52:59 10° SSE daylight
01 May - 01:54:16 10° SE 01:55:18 11° SE 01:56:20 10° ESE visible
01 May - 03:31:56 10° SW 03:36:30 78° SE 03:41:00 10° NE visible
01 May - 05:14:54 10° WNW 05:18:37 25° NNW 05:22:19 10° NNE visible
01 May - 06:59:16 10° NW 07:01:37 14° N 07:03:58 10° NNE daylight
01 May - 08:41:21 10° NNW 08:44:43 21° NNE 08:48:05 10° ENE daylight
01 May - 10:22:34 10° NW 10:27:02 77° NE 10:31:29 10° ESE daylight
01 May - 12:05:44 10° W 12:08:20 15° SW 12:10:57 10° SSW daylight
02 May - 02:10:55 10° S 02:14:41 25° SE 02:18:24 10° ENE visible
02 May - 03:51:47 10° WSW 03:56:14 52° NNW 04:00:38 10° NE visible
02 May - 05:35:44 10° WNW 05:38:46 17° NNW 05:41:47 10° NNE daylight
02 May - 07:19:26 10° NNW 07:21:56 15° N 07:24:26 10° NE daylight
02 May - 09:00:47 10° NW 09:04:47 31° NNE 09:08:46 10° E daylight
02 May - 10:42:22 10° WNW 10:46:40 48° SW 10:50:57 10° SSE daylight
03 May - 02:29:41 10° SW 02:34:11 57° SE 02:38:37 10° ENE visible
03 May - 04:12:09 10° W 04:16:08 29° NNW 04:20:05 10° NE visible
03 May - 05:56:33 10° NW 05:59:02 14° N 06:01:30 10° NNE daylight
03 May - 07:39:05 10° NNW 07:42:11 18° NNE 07:45:17 10° ENE daylight
03 May - 09:20:16 10° NW 09:24:40 58° NE 09:29:03 10° ESE daylight
03 May - 11:02:45 10° W 11:06:07 21° SW 11:09:30 10° S daylight
